Capitol Logistics 427


KELP
El Paso International Airport
El Paso, Texas, US
KTUL
Tulsa International Airport
Tulsa, Oklahoma, US

Activity Log

Date Flight Route Aircraft Duration
11/15/2019 CPX427 TDOWN3 TDOWN SFL HOMET SPS IRW B738 1h 38m
09/13/2019 CPX427 TDOWN3 TDOWN SFL HOMET SPS IRW B752 1h 57m
08/29/2019 CPX427 TDOWN3 TDOWN SFL HOMET SPS IRW B752 1h 53m
08/26/2019 CPX427 LATVE3 CME IRW J78 TUL EOS VINTA2 B752 2h 12m

Route Details

Aircraft Information
Primary: Boeing 757-200SF
Backup: Boeing 737-800BCF
Route Data
Distance: 585nm
Sched. Duration: 1h 19m
Avg. Duration: 1h 65m (+45m)
Times Flown: 4
Recm'd Route: TDOWN3 TDOWN SFL HOMET SPS IRW
Planned Altitude: 37,000ft
Origin Wx: KELP 060651Z 13009KT 10SM FEW120 FEW220 31/08 A2989 RMK AO2 SLP032 T03110078 404170228
Dest. Wx: KTUL 060553Z 13003KT 10SM CLR 26/22 A2992 RMK AO2 SLP120 T02610222 10344 20261 403560200 50007
Notes:

Financial History
Total Freight: 148,234lbs
Average Load: 37,059lbs/flt
Fuel Used: 49,580lbs
Avg. Fuel Used: 12,395lbs/flt
Fuel Expense: $44,622
Avg. Fuel Expense: $11,156
Avg. Fuel Cost: $0.90/lbs
Total Gross Income: $193,418
Pilot Pay: $606
Total Expenses: $21,097
Total Revenue: $126,135
Average Revenue: $48,354.59